Notices

What's New in latest Release from April 7th, 2021:

- Updated Glossary, including Speed of Maximum Gust, and Total Hourly Precipitation

- Updated national and regional climate services offices contacts and prices information

- Addition of station inventory lists for 1981-2010, 1971-2000, and 1961-1990 Normals.

If you haven't already, please take our survey and provide feedback about our website: https://eccc.sondage-survey.ca/f/LanguageSelection.aspx?s=442ca660-fcf1-47c0-95a9-59707d6fd709

Hourly Data Report for August 16, 2020

TORONTO CITY
ONTARIO
Current Station Operator: ECCC - MSC

43°40'00.000" N
79°24'00.000" W
112.50 m
6158355
71508
XTO

Download Data

Hourly Data (August 2020)
Hourly Data Report for August 16, 2020
TIME
LST
Temp Definition
°C
Dew Point Definition
°C
Rel Hum Definition
%
Precip. Amount Definition
mm

Wind Dir Definition
10's deg

Wind Spd Definition
km/h
Visibility Definition
km
Stn Press Definition
kPa
Hmdx Definition


Wind Chill Definition


Weather Definition


00:00 22.6 17.9 75 0.0       100.11 29   LegendNANA
01:00 22.2 17.7 76 0.0       100.07 28   LegendNANA
02:00 22.6 17.8 74 0.0       100.03 28   LegendNANA
03:00 22.3 17.8 76 0.0       100.03 28   LegendNANA
04:00 21.7 17.3 76 0.0       100.01 27   LegendNANA
05:00 21.1 17.3 79 0.0       100.01 27   LegendNANA
06:00 20.9 17.0 78 0.0       100.02 26   LegendNANA
07:00 22.0 17.5 76 0.0       100.07 28   LegendNANA
08:00 23.0 16.8 68 0.0       100.11 28   LegendNANA
09:00 23.3 15.7 62 0.0       100.12 28   LegendNANA
10:00 22.7 15.8 65 0.0       100.13 27   LegendNANA
11:00 24.1 15.0 57 0.0       100.13 28   LegendNANA
12:00 21.4 16.4 73 0.0       100.11 26   LegendNANA
13:00 22.2 16.5 70 0.3       99.99 27   LegendNANA
14:00 23.5 16.0 63 0.0       99.87 28   LegendNANA
15:00 23.7 15.4 60 0.0       99.95 28   LegendNANA
16:00 24.2 14.8 56 0.0       99.93 28   LegendNANA
17:00 24.6 15.2 56 0.0       99.87 29   LegendNANA
18:00 23.5 15.8 62 0.0       99.83 28   LegendNANA
19:00 23.0 16.0 65 0.0       99.90 28   LegendNANA
20:00 23.1 15.8 63 0.0       99.92 28   LegendNANA
21:00 21.8 16.9 74 0.0       99.94 27   LegendNANA
22:00 21.0 17.4 80 0.0       99.95 27   LegendNANA
23:00 20.5 17.4 83 0.0       99.93 26   LegendNANA

Notes on Data Quality.

Legend

  • E = Estimated
  • M = Missing
  • NA = Not Available*
  • [empty] = Indicates an unobserved value
Date modified: